Powrót do katalogu

UTE-GALAPAGOS

AktywnyKrótkofalarstwoSSO
NORAD 67279·PAYLOAD·🇪🇨 Ecuador
Ta nazwa satelity nie została jeszcze potwierdzona przez oficjalne źródła.

Wystrzelony Dec 28, 2025 z Vostochny Cosmodrome

Loading…

Następne Przeloty (najbliższe 24 godziny)

TLE

ŚwieżeSource: Space-Track

Epoka: Sep 14, 2026, 11:24 UTC

1 67279U 25313AH  26257.47556711  .00005468  00000-0  22907-3 0  9999
2 67279  97.3850 330.7088 0014915  54.6027 305.6601 15.23844787 39549

Śledź UTE-GALAPAGOS w czasie rzeczywistym z AllMySat

Download on the App Store